sat.trackr.live / text

‹ back to catalog

CAPELLA-17 (ACADIA-7)

NORAD 64583 · 2025-135BH

PAYLOAD ACTIVE UNKNOWN

§ Identity

Operator
Country
US
Launch date
2025-06-23
Launch site
AFWTR
Launch vehicle
Mass (kg)
RCS (m²)

External: N2YO · Heavens-Above · Gunter

§ Orbital elements

Epoch: 2026-09-21T20:33:59.689440Z

Period
96.50 min
Inclination
97.7749°
Eccentricity
0.0005718
Mean motion
14.92274374 rev/d
Perigee alt
586.9 km
Apogee alt
594.8 km
Semi-major
6,969.0 km
B*
4.4598e-4
RAAN
17.1191°
Arg perigee
45.6783°
Mean anomaly
314.4903°
Rev number
6,826

§ Raw data

CAPELLA-17 (ACADIA-7)1 64583U 25135BH  26264.85694085  .00004498  00000+0  44598-3 0  99942 64583  97.7749  17.1191 0005718  45.6783 314.4903 14.92274374 68264

JSON: /api/v1/satellites/64583 · /tle

For live sub-satellite position, see the globe view (requires WebGL).

§ Visibility from observer

Set your observer location to see the next 7 days of passes ≥ 10°. The values pass through the URL so the page stays shareable.

No JS? Fill the form by hand. The geolocation button needs JavaScript.